Weather History for Ukiah, CA

Change the Weather History Date:

Thursday, February 7, 2013

  Actual Average Record
Temperature  
Mean Temperature 45 °F 49 °F  
Max Temperature 51 °F 59 °F 79 °F (1954)
Min Temperature 39 °F 38 °F 18 °F (1989)
Degree Days  
Heating Degree Days 20 16  
Month to date heating degree days 112 117  
Since 1 July heating degree days 1780 1917  
Cooling Degree Days 0 0  
Month to date cooling degree days 0 0  
Year to date cooling degree days 0 0  
Moisture  
Dew Point 37 °F    
Average Humidity 74    
Maximum Humidity 96    
Minimum Humidity 52    
Precipitation  
Precipitation 0.18 in 0.22 in 2.39 in (1924)
Month to date precipitation 0.18 1.39  
Year to date precipitation 1.43 8.40  
Since 1 July precipitation 24.13 22.37  
Snow  
Snow 0.00 in - - ()
Month to date snowfall 0.0  
Since 1 July snowfall 0.0  
Snow Depth 0.00 in    
Sea Level Pressure  
Sea Level Pressure 30.07 in    
Wind  
Wind Speed 3 mph (NW)    
Max Wind Speed 17 mph    
Max Gust Speed 22 mph    
Visibility 9 miles    
Events Rain    
T = Trace of Precipitation, MM = Missing Value Source: NWS Daily Summary

Daily Weather History Graph

Daily Weather History Graph

Search for Another Location

Airport:

Trip Planner

Search our weather history database for the weather conditions in past years. The results will help you decide how hot, cold, wet, or windy it might be!

Date:

Astronomy

Feb. 07, 2013 Rise Set
Actual Time 7:13 AM PST 5:41 PM PST
Civil Twilight 6:45 AM PST 6:09 PM PST
Nautical Twilight 6:13 AM PST 6:40 PM PST
Astronomical Twilight 5:42 AM PST 7:11 PM PST
Moon 4:56 AM PST (2/7) 3:12 PM PST (2/7)
Length of Visible Light 11h 23m
Length of Day
10h 28m
Waning Crescent, 8% of the Moon is Illuminated
Feb 7
Waning Crescent
Feb 9
New
Feb 17
First Quarter
Feb 25
Full
Mar 4
Last Quarter

Hourly Weather History & Observations

Time (PST) Temp. Windchill Dew Point Humidity Pressure Visibility Wind Dir Wind Speed Gust Speed Precip Events Conditions
12:33 AM 39.2 °F - 35.6 °F 87% 30.15 in 10.0 mi Calm Calm - N/A   Overcast
12:56 AM 39.9 °F - 36.0 °F 86% 30.14 in 10.0 mi Calm Calm - N/A   Overcast
1:31 AM 41.0 °F - 35.6 °F 81% 30.14 in 10.0 mi Calm Calm - N/A   Overcast
1:56 AM 41.0 °F - 37.0 °F 86% 30.13 in 10.0 mi Calm Calm - N/A   Overcast
2:16 AM 41.0 °F - 37.4 °F 87% 30.13 in 10.0 mi Calm Calm - N/A   Overcast
2:56 AM 41.0 °F - 37.0 °F 86% 30.11 in 10.0 mi Calm Calm - N/A   Overcast
3:56 AM 41.0 °F - 37.9 °F 89% 30.08 in 8.0 mi Calm Calm - 0.00 in Rain Light Rain
4:06 AM 41.0 °F - 37.4 °F 87% 30.08 in 6.0 mi Calm Calm - 0.01 in Rain Light Rain
4:56 AM 41.0 °F - 39.0 °F 93% 30.07 in 5.0 mi Calm Calm - 0.05 in Rain Light Rain
5:30 AM 42.8 °F 41.1 °F 41.0 °F 93% 30.09 in 7.0 mi North 3.5 mph - 0.07 in Rain Light Rain
5:56 AM 42.1 °F - 39.9 °F 92% 30.09 in 7.0 mi Calm Calm - 0.08 in Rain Light Rain
6:56 AM 43.0 °F - 41.0 °F 93% 30.10 in 7.0 mi Calm Calm - 0.03 in Rain Light Rain
8:33 AM 44.6 °F - 42.8 °F 93% 30.12 in 10.0 mi Calm Calm - N/A   Scattered Clouds
8:56 AM 44.1 °F - 41.0 °F 89% 30.12 in 10.0 mi Calm Calm - N/A   Mostly Cloudy
9:56 AM 46.9 °F - 41.0 °F 80% 30.12 in 10.0 mi East 3.5 mph - N/A   Partly Cloudy
10:56 AM 50.0 °F - 35.1 °F 57% 30.12 in 10.0 mi NW 5.8 mph - N/A   Mostly Cloudy
11:56 AM 50.0 °F - 33.1 °F 52% 30.09 in 10.0 mi Variable 5.8 mph - N/A   Scattered Clouds
12:56 PM 50.0 °F - 34.0 °F 54% 30.08 in 10.0 mi Variable 4.6 mph - N/A   Overcast
1:56 PM 46.9 °F - 37.9 °F 71% 30.06 in 10.0 mi SW 4.6 mph - 0.01 in Rain Light Rain
2:56 PM 50.0 °F - 35.1 °F 57% 30.04 in 10.0 mi West 11.5 mph 17.3 mph 0.00 in   Mostly Cloudy
3:56 PM 46.9 °F - 36.0 °F 66% 30.05 in 10.0 mi West 10.4 mph - 0.01 in Rain Light Rain
4:56 PM 46.0 °F 43.1 °F 37.0 °F 71% 30.04 in 10.0 mi Variable 5.8 mph - 0.00 in   Overcast
5:21 PM 46.4 °F - 37.4 °F 71% 30.03 in 10.0 mi Calm Calm - N/A   Mostly Cloudy
5:56 PM 45.0 °F - 37.0 °F 74% 30.03 in 10.0 mi Calm Calm - N/A   Overcast
6:16 PM 44.6 °F - 37.4 °F 76% 30.03 in 10.0 mi Calm Calm - N/A   Overcast
6:56 PM 43.0 °F 41.3 °F 37.0 °F 80% 30.03 in 10.0 mi WNW 3.5 mph - N/A   Overcast
7:56 PM 43.0 °F 41.3 °F 37.9 °F 82% 30.02 in 10.0 mi NNW 3.5 mph - 0.00 in   Mostly Cloudy
8:56 PM 42.1 °F 40.2 °F 37.0 °F 82% 30.01 in 10.0 mi West 3.5 mph - 0.00 in   Overcast
9:56 PM 41.0 °F - 37.0 °F 86% 30.02 in 10.0 mi Calm Calm - N/A   Overcast
10:56 PM 39.9 °F - 36.0 °F 86% 30.01 in 10.0 mi Calm Calm - N/A   Overcast
11:56 PM 41.0 °F 39.0 °F 37.0 °F 86% 29.99 in 10.0 mi North 3.5 mph - N/A   Overcast